Home   Weather   Cape Town   Past weeks

Flag for South Africa Past Weather in Cape Town, South Africa — Yesterday and Last 2 Weeks

Now
64 °F

Clear.


Feels Like: 64 °F
Forecast: 63 / 68 °F
Wind: 16 mph from South

Location: Cape Town International Airport

Current Time: Jan 19, 2017 at 9:23:40 pm

Latest Report: Jan 19, 2017 at 9:00 pm


Visibility: 10 mi

Pressure: 30.01 "Hg

Humidity: 64%

Dew Point: 52 °F

Location of Cape TownLocation

Past Weather in Cape Town — Graph

°F

Cape Town Temperature Yesterday

Maximum temperature yesterday: 88 °F (at 11:00 am)
Minimum temperature yesterday: 59 °F (at 5:00 am)
Average temperature yesterday: 72 °F

High & Low Weather Summary for the Past Weeks

 TemperatureHumidityPressure
High88 °F (Jan 10, 3:00 pm)88% (Jan 5, 5:00 am)30.07 "Hg (Jan 5, 5:00 am)
Low59 °F (Jan 18, 5:00 am)23% (Jan 17, 11:00 am)29.65 "Hg (Jan 5, 3:00 am)
Average70 °F62%29.91 "Hg
* Reported Jan 4 8:00 pm — Jan 19 8:00 pm, Cape Town, Weather by CustomWeather, © 2017

Note: Actual official high and low records may vary slightly from our data, if they occured in-between our weather recording intervals... More about our weather records

Advertising

Cape Town Weather History for the Previous 24 Hours

Scroll right to see more
 ConditionsComfort  
Time TempWeatherWind HumidityBarometerVisibility
8:00 pm
Thu, Jan 19
64 °FPassing clouds.20 mph60%29.98 "HgN/A
7:00 pm66 °FPassing clouds.22 mph56%29.98 "HgN/A
6:30 pm68 °FPassing clouds.23 mph53%29.98 "HgN/A
6:00 pm68 °FPassing clouds.24 mph56%29.98 "HgN/A
5:00 pm70 °FPassing clouds.21 mph53%29.98 "HgN/A
4:00 pm72 °FPassing clouds.23 mph50%29.98 "HgN/A
3:00 pm72 °FPassing clouds.23 mph50%29.98 "HgN/A
2:00 pm72 °FPassing clouds.22 mph50%30.01 "HgN/A
1:00 pm72 °FPassing clouds.21 mph50%30.01 "HgN/A
12:00 pm72 °FPassing clouds.20 mph53%30.01 "HgN/A
11:00 am70 °FScattered clouds.23 mph57%30.01 "HgN/A
10:00 am68 °FPartly sunny.22 mph69%30.01 "HgN/A
9:00 am66 °FBroken clouds.20 mph78%30.01 "HgN/A
7:00 am64 °FPartly sunny.7 mph73%29.98 "HgN/A
6:00 am63 °FPartly sunny.10 mph77%29.95 "HgN/A
5:00 am63 °FClear.7 mph73%29.95 "Hg10 mi
4:00 am64 °FClear.10 mph73%29.95 "Hg10 mi
3:00 am64 °FClear.14 mph73%29.95 "Hg10 mi
2:00 am64 °FClear.14 mph73%29.95 "Hg10 mi
1:00 am66 °FPassing clouds.16 mph73%29.95 "HgN/A
12:00 am66 °FPassing clouds.16 mph78%29.95 "HgN/A
11:00 pm
Wed, Jan 18
68 °FPassing clouds.17 mph78%29.95 "HgN/A
10:00 pm68 °FPassing clouds.16 mph78%29.92 "HgN/A
9:00 pm68 °FPassing clouds.17 mph73%29.92 "HgN/A
Weather by CustomWeather, © 2017

See weather overviewHow to use our weather pages